Location: Asheville, NC
(35.6000°N, 82.5500°W)
Time: 20:33:21
(UTC-04:00)

STARS - Pass Details

Date: 12 March 2018
Orbit: 626 x 640 km, 98.3° (Epoch: 20 June)

Event Time Altitude Azimuth Distance (km) Brightness Sun altitude
Rises 06:17:00 0° 141° (SE) 2,927 ? -18.7°
Reaches altitude 10° 06:19:24 10° 130° (SE) 2,023 ? -18.2°
Maximum altitude 06:23:12 29° 70° (ENE) 1,162 ? -17.5°
Drops below altitude 10° 06:27:02 10° 11° (N) 2,033 ? -16.7°
Sets 06:29:27 0° 0° (N) 2,945 ? -16.2°
